Weather History for Peru, IN

Change the Weather History Date:

Thursday, September 13, 2012

  Actual Average Record
Temperature  
Mean Temperature 73 °F -  
Max Temperature 82 °F 75 °F 91 °F (2005)
Min Temperature 63 °F 54 °F 48 °F (2013)
Cooling Degree Days 8    
Growing Degree Days 23 (Base 50)    
Moisture  
Dew Point 60 °F    
Average Humidity 69    
Maximum Humidity 89    
Minimum Humidity 45    
Precipitation  
Precipitation 0.00 in - - ()
Sea Level Pressure  
Sea Level Pressure 30.22 in    
Wind  
Wind Speed 8 mph (SW)    
Max Wind Speed 17 mph    
Max Gust Speed 17 mph    
Visibility 10 miles    
Events      
Averages and records for this station are not official NWS values.
T = Trace of Precipitation, MM = Missing Value Source: NWS Daily Summary

Daily Weather History Graph

Daily Weather History Graph

Search for Another Location

Airport:

Trip Planner

Search our weather history database for the weather conditions in past years. The results will help you decide how hot, cold, wet, or windy it might be!

Date:

Astronomy

Sep. 13, 2012 Rise Set
Actual Time 7:23 AM EDT 7:56 PM EDT
Civil Twilight 6:56 AM EDT 8:23 PM EDT
Nautical Twilight 6:23 AM EDT 8:55 PM EDT
Astronomical Twilight 5:50 AM EDT 9:29 PM EDT
Moon 4:42 AM EDT (9/13) 6:18 PM EDT (9/13)
Length of Visible Light 13h 27m
Length of Day
12h 32m
Waning Crescent, 7% of the Moon is Illuminated
Sep 13
Waning Crescent
Sep 15
New
Sep 22
First Quarter
Sep 29
Full
Oct 8
Last Quarter

Hourly Weather History & Observations

Time (EDT) Temp. Heat Index Dew Point Humidity Pressure Visibility Wind Dir Wind Speed Gust Speed Precip Events Conditions
12:55 AM 67.1 °F - 58.8 °F 75% 30.21 in 10.0 mi South 5.8 mph - N/A   Overcast
1:55 AM 67.6 °F - 59.5 °F 75% 30.21 in 10.0 mi South 6.9 mph - N/A   Overcast
2:55 AM 67.8 °F - 59.9 °F 76% 30.21 in 10.0 mi SSW 6.9 mph - N/A   Overcast
3:55 AM 68.0 °F - 59.5 °F 74% 30.21 in 10.0 mi SSW 5.8 mph - N/A   Overcast
4:55 AM 66.7 °F - 60.3 °F 80% 30.23 in 10.0 mi SSW 5.8 mph - N/A   Overcast
5:55 AM 66.7 °F - 59.9 °F 79% 30.24 in 10.0 mi SW 5.8 mph - N/A   Overcast
6:55 AM 66.4 °F - 59.7 °F 79% 30.24 in 10.0 mi SW 6.9 mph - N/A   Overcast
7:55 AM 66.0 °F - 59.0 °F 78% 30.26 in 10.0 mi South 4.6 mph - N/A   Overcast
8:55 AM 67.3 °F - 59.7 °F 77% 30.26 in 10.0 mi SSW 4.6 mph - N/A   Overcast
9:55 AM 70.3 °F - 59.9 °F 69% 30.27 in 10.0 mi SSW 5.8 mph - N/A   Overcast
10:55 AM 72.9 °F - 60.1 °F 64% 30.27 in 10.0 mi SW 6.9 mph - N/A   Overcast
11:55 AM 76.3 °F - 60.8 °F 59% 30.26 in 10.0 mi SW 8.1 mph - N/A   Mostly Cloudy
12:55 PM 79.5 °F - 58.5 °F 48% 30.24 in 10.0 mi WSW 12.7 mph 17.3 mph N/A   Mostly Cloudy
1:55 PM 78.8 °F - 57.0 °F 47% 30.23 in 10.0 mi SSW 12.7 mph - N/A   Mostly Cloudy
2:55 PM 79.9 °F - 57.0 °F 45% 30.21 in 10.0 mi SSW 12.7 mph - N/A   Scattered Clouds
3:55 PM 81.3 °F 81.8 °F 60.1 °F 48% 30.19 in 10.0 mi South 13.8 mph - N/A   Partly Cloudy
4:55 PM 78.3 °F - 60.3 °F 54% 30.18 in 10.0 mi South 13.8 mph - N/A   Scattered Clouds
5:55 PM 78.3 °F - 60.3 °F 54% 30.17 in 10.0 mi SSW 13.8 mph - N/A   Partly Cloudy
6:55 PM 76.6 °F - 61.2 °F 59% 30.17 in 10.0 mi SW 8.1 mph - N/A   Scattered Clouds
7:55 PM 73.4 °F - 61.9 °F 67% 30.18 in 10.0 mi South 4.6 mph - N/A   Overcast
8:55 PM 72.5 °F - 63.3 °F 73% 30.20 in 10.0 mi NW 17.3 mph - N/A   Overcast
9:35 PM 68.0 °F - 62.6 °F 83% 30.21 in 10.0 mi NNE 13.8 mph - N/A   Light Drizzle
9:44 PM 68.0 °F - 60.8 °F 78% 30.21 in 10.0 mi North 15.0 mph - N/A   Overcast
9:55 PM 67.3 °F - 61.3 °F 81% 30.22 in 10.0 mi North 13.8 mph - 0.00 in   Overcast
10:55 PM 65.3 °F - 60.6 °F 85% 30.22 in 10.0 mi NNE 8.1 mph - N/A   Overcast
11:55 PM 63.7 °F - 60.3 °F 89% 30.24 in 10.0 mi North 6.9 mph - N/A   Overcast